• In Belarus
  • List of Countries
  • For 7 days
  • Water Temperature
  • Weather Map
  • Weather Widgets
  • user-avatar
    Login

    Hourly Weather Salzburg

    Today, 6 June, Saturday

    Time Temperature Precipitation Wind Pressure Humidity
    00:00 +5°C° 0 mm 1 mps 618 mmHg 94%
    01:00 +5°C° 0 mm 1 mps 618 mmHg 96%
    02:00 +5°C° 0 mm 1 mps 618 mmHg 95%
    03:00 +5°C° 0 mm 1 mps 618 mmHg 95%
    04:00 +3°C° 0 mm 2 mps 618 mmHg 94%
    05:00 +5°C° 0 mm 2 mps 619 mmHg 91%
    06:00 +7°C° 0 mm 2 mps 620 mmHg 87%
    07:00 +8°C° 0 mm 2 mps 621 mmHg 83%
    08:00 +12°C° 0 mm 2 mps 621 mmHg 74%
    09:00 +14°C° 0 mm 2 mps 622 mmHg 64%
    10:00 +16°C° 0 mm 1 mps 623 mmHg 55%
    11:00 +16°C° 0.5 mm 2 mps 623 mmHg 62%
    12:00 +15°C° 0.5 mm 2 mps 622 mmHg 68%
    13:00 +14°C° 0.5 mm 2 mps 622 mmHg 75%
    14:00 +13°C° 1 mm 2 mps 622 mmHg 81%
    15:00 +12°C° 1 mm 2 mps 621 mmHg 87%
    16:00 +11°C° 1 mm 1 mps 621 mmHg 93%
    17:00 +11°C° 1 mm 1 mps 621 mmHg 95%
    18:00 +10°C° 1 mm 1 mps 621 mmHg 97%
    19:00 +9°C° 1 mm 1 mps 620 mmHg 98%
    20:00 +9°C° 0.5 mm 1 mps 621 mmHg 98%
    21:00 +7°C° 0.5 mm 0 mps 621 mmHg 99%
    22:00 +7°C° 0.5 mm 0 mps 621 mmHg 99%
    23:00 +7°C° 0.2 mm 0 mps 621 mmHg 98%

    Tomorrow, 7 June, Sunday

    Time Temperature Precipitation Wind Pressure Humidity
    00:00 +7°C° 0.2 mm 0 mps 621 mmHg 98%
    01:00 +8°C° 0.2 mm 1 mps 621 mmHg 98%
    02:00 +7°C° 0 mm 1 mps 620 mmHg 97%
    03:00 +7°C° 0 mm 1 mps 620 mmHg 97%
    04:00 +7°C° 0 mm 1 mps 620 mmHg 96%
    05:00 +7°C° 0 mm 0 mps 620 mmHg 95%
    06:00 +8°C° 0 mm 0 mps 621 mmHg 95%
    07:00 +8°C° 0 mm 0 mps 621 mmHg 94%
    08:00 +10°C° 0.2 mm 1 mps 621 mmHg 92%
    09:00 +11°C° 0.2 mm 1 mps 622 mmHg 91%
    10:00 +11°C° 0.2 mm 1 mps 622 mmHg 89%
    11:00 +11°C° 0.7 mm 1 mps 622 mmHg 91%
    12:00 +9°C° 0.7 mm 2 mps 622 mmHg 93%
    13:00 +9°C° 0.7 mm 2 mps 621 mmHg 94%
    14:00 +8°C° 1 mm 2 mps 621 mmHg 95%
    15:00 +7°C° 1 mm 2 mps 621 mmHg 97%
    16:00 +6°C° 1 mm 2 mps 621 mmHg 98%
    17:00 +5°C° 1.6 mm 2 mps 621 mmHg 98%
    18:00 +5°C° 1.6 mm 2 mps 621 mmHg 99%
    19:00 +4°C° 1.6 mm 2 mps 621 mmHg 99%
    20:00 +5°C° 1 mm 1 mps 621 mmHg 99%
    21:00 +5°C° 1 mm 1 mps 621 mmHg 99%
    22:00 +5°C° 1 mm 1 mps 622 mmHg 99%
    23:00 +4°C° 0.1 mm 0 mps 622 mmHg 99%

    Day after tomorrow, 8 June, Monday

    Time Temperature Precipitation Wind Pressure Humidity
    00:00 +4°C° 0.1 mm 0 mps 621 mmHg 99%
    01:00 +3°C° 0.1 mm 0 mps 621 mmHg 99%
    02:00 +3°C° 0 mm 0 mps 621 mmHg 98%
    03:00 +3°C° 0 mm 0 mps 621 mmHg 98%
    04:00 +3°C° 0 mm 0 mps 621 mmHg 98%
    05:00 +4°C° 0.1 mm 0 mps 621 mmHg 98%
    06:00 +4°C° 0.1 mm 0 mps 621 mmHg 97%
    07:00 +5°C° 0.1 mm 1 mps 622 mmHg 97%
    08:00 +5°C° 0.1 mm 1 mps 622 mmHg 95%
    09:00 +6°C° 0.1 mm 1 mps 623 mmHg 94%
    10:00 +7°C° 0.1 mm 1 mps 623 mmHg 92%
    11:00 +7°C° 0.1 mm 1 mps 623 mmHg 90%
    12:00 +8°C° 0.1 mm 1 mps 623 mmHg 88%
    13:00 +8°C° 0.1 mm 1 mps 623 mmHg 86%
    14:00 +9°C° 0 mm 1 mps 623 mmHg 84%
    15:00 +9°C° 0 mm 1 mps 623 mmHg 82%
    16:00 +10°C° 0 mm 1 mps 624 mmHg 81%
    17:00 +9°C° 0 mm 1 mps 623 mmHg 84%
    18:00 +9°C° 0 mm 1 mps 623 mmHg 87%
    19:00 +8°C° 0 mm 1 mps 623 mmHg 89%
    20:00 +8°C° 0 mm 1 mps 623 mmHg 91%
    21:00 +6°C° 0 mm 0 mps 623 mmHg 93%
    22:00 +6°C° 0 mm 0 mps 624 mmHg 95%
    23:00 +5°C° 0 mm 0 mps 623 mmHg 95%

    9 June, Tuesday

    Time Temperature Precipitation Wind Pressure Humidity
    00:00 +5°C° 0 mm 0 mps 623 mmHg 96%
    01:00 +4°C° 0 mm 0 mps 623 mmHg 96%
    02:00 +4°C° 0 mm 0 mps 623 mmHg 96%
    03:00 +4°C° 0 mm 0 mps 623 mmHg 96%
    04:00 +4°C° 0 mm 0 mps 623 mmHg 96%
    05:00 +5°C° 0.1 mm 0 mps 623 mmHg 94%
    06:00 +6°C° 0.1 mm 0 mps 623 mmHg 92%
    07:00 +7°C° 0.1 mm 0 mps 624 mmHg 90%
    08:00 +7°C° 0.1 mm 0 mps 624 mmHg 88%
    09:00 +9°C° 0.1 mm 1 mps 624 mmHg 86%
    10:00 +10°C° 0.1 mm 1 mps 625 mmHg 84%
    11:00 +10°C° 0.2 mm 1 mps 625 mmHg 85%
    12:00 +10°C° 0.2 mm 1 mps 625 mmHg 86%
    13:00 +10°C° 0.2 mm 1 mps 625 mmHg 87%
    14:00 +9°C° 0.3 mm 0 mps 625 mmHg 90%
    15:00 +9°C° 0.3 mm 0 mps 625 mmHg 92%
    16:00 +9°C° 0.3 mm 0 mps 624 mmHg 95%
    17:00 +9°C° 0.2 mm 0 mps 624 mmHg 95%
    18:00 +8°C° 0.2 mm 0 mps 624 mmHg 96%
    19:00 +8°C° 0.2 mm 0 mps 624 mmHg 97%
    20:00 +7°C° 0.1 mm 0 mps 624 mmHg 97%
    21:00 +7°C° 0.1 mm 0 mps 624 mmHg 97%
    22:00 +6°C° 0.1 mm 0 mps 624 mmHg 97%
    23:00 +6°C° 0 mm 0 mps 624 mmHg 96%

    10 June, Wednesday

    Time Temperature Precipitation Wind Pressure Humidity
    00:00 +6°C° 0 mm 1 mps 624 mmHg 96%
    01:00 +6°C° 0 mm 1 mps 623 mmHg 96%
    02:00 +5°C° 0 mm 0 mps 623 mmHg 95%
    03:00 +4°C° 0 mm 0 mps 623 mmHg 95%
    04:00 +4°C° 0 mm 0 mps 623 mmHg 95%
    05:00 +5°C° 0 mm 0 mps 623 mmHg 94%
    06:00 +6°C° 0 mm 0 mps 624 mmHg 94%
    07:00 +8°C° 0 mm 0 mps 624 mmHg 93%
    08:00 +8°C° 0.2 mm 0 mps 625 mmHg 93%
    09:00 +8°C° 0.2 mm 0 mps 625 mmHg 93%
    10:00 +10°C° 0.2 mm 1 mps 625 mmHg 92%
    11:00 +9°C° 1.6 mm 1 mps 625 mmHg 94%
    12:00 +9°C° 1.6 mm 1 mps 625 mmHg 96%
    13:00 +8°C° 1.6 mm 0 mps 625 mmHg 97%
    14:00 +8°C° 1 mm 0 mps 625 mmHg 97%
    15:00 +8°C° 1 mm 0 mps 625 mmHg 97%
    16:00 +8°C° 1 mm 0 mps 625 mmHg 96%
    17:00 +8°C° 0.1 mm 0 mps 625 mmHg 97%
    18:00 +8°C° 0.1 mm 0 mps 625 mmHg 97%
    19:00 +8°C° 0.1 mm 0 mps 625 mmHg 98%
    20:00 +7°C° 0.4 mm 0 mps 625 mmHg 98%
    21:00 +7°C° 0.4 mm 0 mps 625 mmHg 98%
    22:00 +7°C° 0.4 mm 0 mps 625 mmHg 99%
    23:00 +7°C° 0.7 mm 0 mps 625 mmHg 99%

    11 June, Thursday

    Time Temperature Precipitation Wind Pressure Humidity
    00:00 +8°C° 0.7 mm 1 mps 625 mmHg 99%
    01:00 +8°C° 0.7 mm 1 mps 625 mmHg 99%
    02:00 +7°C° 1.1 mm 1 mps 625 mmHg 99%
    03:00 +7°C° 1.1 mm 1 mps 625 mmHg 99%
    04:00 +7°C° 1.1 mm 1 mps 624 mmHg 99%
    05:00 +7°C° 1.3 mm 1 mps 624 mmHg 99%
    06:00 +7°C° 1.3 mm 1 mps 624 mmHg 99%
    07:00 +7°C° 1.3 mm 1 mps 624 mmHg 99%
    08:00 +7°C° 1.1 mm 1 mps 625 mmHg 99%
    09:00 +7°C° 1.1 mm 1 mps 625 mmHg 99%
    10:00 +7°C° 1.1 mm 1 mps 625 mmHg 99%
    11:00 +7°C° 0.7 mm 1 mps 625 mmHg 99%
    12:00 +7°C° 0.7 mm 1 mps 625 mmHg 99%
    13:00 +7°C° 0.7 mm 1 mps 624 mmHg 99%
    14:00 +7°C° 0.6 mm 1 mps 624 mmHg 99%
    15:00 +7°C° 0.6 mm 1 mps 624 mmHg 99%
    16:00 +7°C° 0.6 mm 1 mps 624 mmHg 99%
    17:00 +6°C° 0.6 mm 0 mps 624 mmHg 99%
    18:00 +6°C° 0.6 mm 0 mps 624 mmHg 99%
    19:00 +6°C° 0.6 mm 0 mps 624 mmHg 99%
    20:00 +6°C° 0.2 mm 0 mps 624 mmHg 99%
    21:00 +5°C° 0.2 mm 0 mps 624 mmHg 99%
    22:00 +5°C° 0.2 mm 0 mps 624 mmHg 99%
    23:00 +5°C° 0.1 mm 0 mps 624 mmHg 99%
    Show more